Tracking 30918 objects as of 2-Jul-2025
HD Live streaming from Space Station
objects crossing your sky now

OKEAN O

Track OKEAN O now!
10-day predictions
OKEAN O is classified as:


NORAD ID: 25860
Int'l Code: 1999-039A
Perigee: 635.7 km
Apogee: 638.4 km
Inclination: 98.0 °
Period: 97.3 minutes
Semi major axis: 7008 km
RCS: 19.8052 m2 (large)
Launch date: July 17, 1999
Source: Commonwealth of Independent States (former USSR) (CIS)
Launch site: TYURATAM MISSILE AND SPACE COMPLEX (TTMTR)
Your satellite tracking list
ELECTRON KICK STAGE R/B
Track 1 satellite(s)




NASA's NSSDC Master Catalog

Two Line Element Set (TLE):
1 25860U 99039A   25182.69994723  .00000528  00000-0  77018-4 0  9990
2 25860  97.9825 239.6081 0001942  86.0578 274.0856 14.79824500397261
Source of the keplerian elements: AFSPC